[[{"header":{"parameterUnit":"m.s-1","parameterCategory":1,"la1":30.2991,"la2":30.254,"lo1":-89.0895,"lo2":-89.0444,"dy":0.0017,"dx":0.0017,"nx":28,"ny":28,"refTime":"2024-02-20T03:00:00:Z","depth":0,"parameterNumber":2,"parameterNumberName":"U-component_of_WINDS"},"data":[0,0,0,0,0,0,0,0,0,0,0,0,0,0,0,0,0,0,0,0,0,0,0,0,0,0,0,0,0,0,0,0,0,0,0,0,0,0,0,0,0,0,0,0,0,0,0,0,0,0,0,0,0,0,0,0,0,0,1.8847,1.8848,0,1.8979,1.898,1.8982,1.9021,1.902,1.9019,1.9019,1.9158,1.9163,1.9167,0,0,0,0,0,0,0,0,0,0,0,0,0,1.8634,1.8638,1.8847,1.8848,1.885,1.8978,1.898,1.8982,1.9021,1.902,1.9019,1.9018,1.9157,1.9162,1.9167,0,0,0,0,0,0,0,0,0,0,0,0,0,1.8743,1.8639,1.8846,1.8885,1.8889,1.8978,1.898,1.8983,1.9021,1.902,1.9019,1.9018,1.9155,1.9162,1.9168,1.9229,0,0,1.9188,1.9191,0,0,0,0,0,0,0,0,1.8736,1.875,1.8877,1.8882,1.8888,1.8982,1.8957,1.9065,1.9021,1.8971,1.9019,1.9017,1.9101,1.9112,1.9139,1.9236,1.9242,1.9189,1.9193,1.9195,1.9197,0,0,0,0,0,0,0,1.8729,1.8745,1.8899,1.8879,1.8886,1.8897,1.8911,1.8977,1.904,1.8975,1.8979,1.8993,1.9103,1.9133,1.9143,1.9244,1.9188,1.9194,1.9198,1.9201,1.94,1.9402,0,0,0,0,0,0,1.8714,1.8738,1.8895,1.8903,1.8808,1.8902,1.8918,1.8953,1.904,1.9052,1.8994,1.8995,1.9122,1.9135,1.9148,1.9226,1.9195,1.9201,1.9205,1.9399,1.9401,1.9402,0,0,0,0,0,0,1.8709,1.8728,1.889,1.8822,1.8843,1.8907,1.8946,1.8956,1.8985,1.9054,1.9066,1.9012,1.9122,1.9138,1.9209,1.9231,1.9204,1.921,1.9397,1.9399,1.9401,1.9383,0,0,0,0,0,0,1.8703,1.8726,1.8748,1.8822,1.8847,1.8947,1.8947,1.8959,1.8996,1.8998,1.9074,1.9085,1.9122,1.9199,1.9215,1.924,1.9216,1.9396,1.9398,1.9401,1.9382,1.9384,1.9386,0,0,0,0,0,1.8695,1.8738,1.8749,1.8768,1.8876,1.8948,1.8962,1.9002,1.8997,1.9021,1.9066,1.9083,1.9226,1.9206,1.9225,1.9252,1.9394,1.9398,1.9401,1.9381,1.9384,1.9386,0,0,0,0,0,0,1.8667,1.8749,1.8761,1.8829,1.8881,1.8954,1.8986,1.9004,1.9059,1.9059,1.9108,1.9125,1.9192,1.9229,1.9205,1.9317,1.9311,1.9318,1.929,1.9293,1.9295,1.9285,1.9221,0,0,0,0,0,1.8668,1.8718,1.8788,1.8841,1.8866,1.8921,1.8954,1.8981,1.9037,1.906,1.911,1.9165,1.9223,1.926,1.9317,1.9388,1.9406,1.9416,1.9418,1.9419,1.9425,1.9466,1.9472,1.9412,1.9412,1.9412,0,0,1.8672,1.8723,1.8751,1.8836,1.888,1.8933,1.894,1.8995,1.9035,1.9069,1.9138,1.9177,1.9243,1.9313,1.9347,1.9346,1.9445,1.9423,1.9424,1.9429,1.947,1.9476,1.9481,1.9414,1.9414,1.9414,0,0,1.8705,1.8748,1.8797,1.8841,1.8906,1.8943,1.8955,1.9026,1.9053,1.9123,1.915,1.92,1.9298,1.9344,1.938,1.9433,1.9451,1.9451,1.9461,1.9501,1.9506,1.951,1.953,1.9537,1.9456,1.9456,1.9456,0,1.8701,1.878,1.8821,1.8875,1.8912,1.8945,1.8997,1.9037,1.9119,1.9145,1.9142,1.9267,1.9314,1.9396,1.9409,1.9437,1.9454,1.9442,1.9502,1.9507,1.9511,1.9531,1.9538,1.9455,1.9455,1.9455,1.9455,0,1.8773,1.8828,1.886,1.8936,1.8978,1.903,1.9081,1.9119,1.9142,1.918,1.9252,1.9309,1.9379,1.9401,1.9424,1.9488,1.9485,1.9492,1.9487,1.9516,1.9535,1.9543,1.9454,1.9455,1.9455,1.9455,0,0,1.879,1.889,1.8901,1.8937,1.9012,1.9056,1.9112,1.9179,1.921,1.9266,1.9315,1.9398,1.9405,1.9446,1.9476,1.9511,1.955,1.9513,1.9516,1.9518,1.9625,1.9619,1.9627,1.9563,1.9565,1.9566,1.9619,0,1.8834,1.8931,1.8971,1.9051,1.9103,1.9136,1.9184,1.9237,1.9274,1.9325,1.9368,1.9426,1.943,1.9455,1.9491,1.9537,1.9572,1.9534,1.961,1.9612,1.9592,1.9637,1.9631,1.9678,1.9627,1.9628,1.9629,0,1.8896,1.8951,1.9036,1.9107,1.913,1.9173,1.9238,1.9286,1.9348,1.9373,1.9419,1.9447,1.9509,1.9501,1.9587,1.956,1.9594,1.9622,1.9625,1.9633,1.9622,1.9646,1.9694,1.9701,1.9641,1.964,1.9639,0,1.8901,1.8997,1.906,1.909,1.9174,1.9203,1.924,1.93,1.9339,1.9397,1.9423,1.9487,1.9523,1.9574,1.9619,1.9609,1.9702,1.9697,1.9725,1.9724,1.9743,1.9741,1.9797,1.9765,1.9765,1.9765,1.9764,0,1.8945,1.8996,1.9064,1.9103,1.9161,1.9208,1.9265,1.9305,1.9358,1.9407,1.944,1.9486,1.9543,1.9597,1.9633,1.97,1.9716,1.9739,1.9748,1.9736,1.9733,1.9758,1.9756,1.9767,1.9766,1.9766,1.9765,0,1.8959,1.9007,1.9078,1.9152,1.9172,1.9212,1.9276,1.9317,1.9356,1.9418,1.9435,1.9497,1.9562,1.9613,1.9697,1.9722,1.9792,1.9803,1.9771,1.9776,1.9801,1.9798,1.9875,1.9888,1.9847,1.9847,1.9847,0,1.8984,1.9023,1.9102,1.9136,1.9172,1.9227,1.9267,1.9315,1.9355,1.9429,1.9461,1.9527,1.9583,1.9686,1.974,1.9806,1.9817,1.984,1.9827,1.9814,1.9818,1.9815,1.982,1.9841,1.9841,1.9842,1.9842,0,1.9022,1.9044,1.9099,1.9162,1.9208,1.926,1.9313,1.934,1.9399,1.9442,1.9508,1.9552,1.9638,1.9705,1.9776,1.9816,1.9839,1.9845,1.9855,1.9843,1.9823,1.9835,1.9775,1.9843,1.9843,1.9843,1.9843,1.9843,1.9043,1.908,1.9141,1.9202,1.9247,1.9296,1.9338,1.9383,1.9438,1.9511,1.9537,1.9605,1.9669,1.9767,1.9807,1.9863,1.9864,1.9878,1.9882,1.9885,1.9884,1.9815,1.9876,1.9876,1.9876,1.9876,1.9876,0,1.9084,1.9125,1.918,1.9253,1.9301,1.9318,1.9378,1.9418,1.9477,1.9533,1.9587,1.9664,1.973,1.9789,1.9858,1.9891,1.9903,1.9907,1.9905,1.9914,1.9879,1.9863,1.9896,1.9896,1.9896,1.9896,1.9896,1.9896,1.911,1.9175,1.9204,1.9292,1.9334,1.94,1.9433,1.948,1.9525,1.9609,1.9663,1.9701,1.9759,1.9832,1.9894,1.991,1.9934,1.9935,1.9954,1.9919,1.9917,1.9914,1.99,1.994,1.994,1.9985,1.9985,1.9986]},{"header":{"parameterUnit":"m.s-1","parameterCategory":1,"la1":30.2991,"la2":30.254,"lo1":-89.0895,"lo2":-89.0444,"dy":0.0017,"dx":0.0017,"nx":28,"ny":28,"refTime":"2024-02-20T03:00:00:Z","depth":0,"parameterNumber":3,"parameterNumberName":"V-component_of_WINDS"},"data":[0,0,0,0,0,0,0,0,0,0,0,0,0,0,0,0,0,0,0,0,0,0,0,0,0,0,0,0,0,0,0,0,0,0,0,0,0,0,0,0,0,0,0,0,0,0,0,0,0,0,0,0,0,0,0,0,0,0,2.2391,2.2391,0,2.2427,2.2427,2.2427,2.2408,2.2408,2.2407,2.2406,2.244,2.2442,2.2444,0,0,0,0,0,0,0,0,0,0,0,0,0,2.2302,2.2304,2.2391,2.2391,2.2392,2.2427,2.2427,2.2428,2.2409,2.2407,2.2406,2.2405,2.244,2.2442,2.2444,0,0,0,0,0,0,0,0,0,0,0,0,0,2.234,2.2305,2.2391,2.2387,2.2387,2.2427,2.2427,2.2428,2.2409,2.2407,2.2406,2.2405,2.2439,2.2442,2.2444,2.249,0,0,2.2453,2.2454,0,0,0,0,0,0,0,0,2.2338,2.2343,2.2387,2.2387,2.2387,2.2412,2.2409,2.2449,2.2409,2.24,2.2406,2.2404,2.2432,2.2435,2.2445,2.2492,2.2493,2.2453,2.2455,2.2456,2.2457,0,0,0,0,0,0,0,2.2335,2.2341,2.2405,2.2387,2.2388,2.2382,2.2385,2.2416,2.2424,2.2401,2.24,2.2404,2.2432,2.2442,2.2446,2.2494,2.2453,2.2455,2.2457,2.2458,2.2576,2.2577,0,0,0,0,0,0,2.2333,2.2339,2.2404,2.2406,2.2358,2.2384,2.2389,2.2405,2.2423,2.2425,2.2405,2.2403,2.2438,2.2442,2.2447,2.2498,2.2456,2.2458,2.246,2.2574,2.2576,2.2578,0,0,0,0,0,0,2.2331,2.2339,2.2402,2.2372,2.238,2.2387,2.2406,2.2407,2.2417,2.2427,2.2428,2.2415,2.2437,2.2443,2.2479,2.2499,2.246,2.2462,2.2572,2.2575,2.2577,2.2604,0,0,0,0,0,0,2.2329,2.2339,2.2357,2.2373,2.2382,2.2435,2.2408,2.2408,2.2422,2.242,2.2436,2.2437,2.2437,2.2475,2.2481,2.2502,2.2464,2.2571,2.2573,2.2576,2.2601,2.2607,2.2611,0,0,0,0,0,2.2326,2.2364,2.2358,2.2366,2.2405,2.2436,2.2441,2.244,2.2424,2.2442,2.2447,2.2437,2.2497,2.2479,2.2486,2.2508,2.2569,2.2573,2.2576,2.2599,2.2606,2.2611,0,0,0,0,0,0,2.235,2.2366,2.236,2.2404,2.2419,2.2433,2.2455,2.2448,2.2467,2.2464,2.2461,2.2465,2.2501,2.2509,2.2488,2.2551,2.253,2.2535,2.2545,2.2552,2.2557,2.2553,2.2467,0,0,0,0,0,2.2361,2.2386,2.2398,2.2436,2.2443,2.2448,2.2462,2.2459,2.2474,2.2481,2.2489,2.2503,2.2524,2.2539,2.256,2.2603,2.2604,2.2621,2.2626,2.2631,2.2634,2.2654,2.2661,2.2588,2.2588,2.2588,0,0,2.2383,2.2394,2.241,2.2441,2.2452,2.2476,2.2454,2.2481,2.2498,2.2485,2.2518,2.2525,2.254,2.2579,2.2596,2.2586,2.2655,2.2635,2.2638,2.2639,2.2658,2.2665,2.2671,2.2591,2.259,2.259,0,0,2.2435,2.2448,2.2479,2.249,2.2507,2.2509,2.2517,2.2532,2.2535,2.2569,2.2558,2.2578,2.2616,2.2627,2.2637,2.269,2.268,2.2697,2.2723,2.2743,2.2748,2.2753,2.2769,2.2775,2.2701,2.2701,2.2701,0,2.246,2.2497,2.2496,2.2523,2.2535,2.2524,2.2554,2.2565,2.2588,2.2595,2.2584,2.2629,2.2639,2.2678,2.2691,2.2701,2.2707,2.2694,2.2748,2.2753,2.2757,2.2772,2.2779,2.2703,2.2703,2.2702,2.2702,0,2.2525,2.255,2.2573,2.2594,2.261,2.2638,2.264,2.2655,2.2651,2.2654,2.2687,2.2698,2.2719,2.2729,2.2726,2.2767,2.276,2.2748,2.2726,2.2766,2.278,2.2786,2.2705,2.2705,2.2704,2.2704,0,0,2.2593,2.2612,2.262,2.2628,2.2645,2.2664,2.2691,2.2712,2.2723,2.2739,2.276,2.2791,2.278,2.2791,2.2789,2.2807,2.2844,2.2792,2.2793,2.2799,2.2886,2.2892,2.2899,2.2838,2.2839,2.284,2.2883,0,2.2643,2.2691,2.2689,2.2733,2.2754,2.2743,2.2766,2.2778,2.2781,2.2799,2.2803,2.2823,2.2809,2.2815,2.2832,2.2836,2.2861,2.2833,2.2855,2.2856,2.2849,2.2907,2.2915,2.2955,2.2889,2.289,2.2891,0,2.2709,2.2725,2.2771,2.2781,2.279,2.2811,2.2828,2.2846,2.2858,2.2859,2.2871,2.2866,2.2891,2.287,2.2903,2.2884,2.2893,2.2896,2.2898,2.2898,2.2874,2.2906,2.2968,2.2973,2.29,2.2899,2.2899,0,2.275,2.2784,2.2814,2.2822,2.2836,2.285,2.2857,2.2868,2.2879,2.2894,2.2901,2.2919,2.2928,2.2941,2.294,2.2925,2.2973,2.2952,2.2972,2.2972,2.2981,2.298,2.3043,2.2991,2.2991,2.2991,2.2991,0,2.2805,2.2832,2.2832,2.2851,2.288,2.2878,2.2907,2.2912,2.2921,2.2939,2.2931,2.2948,2.2946,2.2963,2.2962,2.2988,2.2993,2.2993,2.2991,2.2992,2.2991,2.2996,2.2992,2.2993,2.2992,2.2992,2.2992,0,2.2855,2.2857,2.2889,2.2899,2.2902,2.2923,2.2931,2.2947,2.295,2.2972,2.2977,2.298,2.2999,2.2999,2.3022,2.3021,2.3051,2.3048,2.3047,2.3045,2.3064,2.3061,2.313,2.3138,2.3083,2.3084,2.3084,0,2.2889,2.2909,2.2921,2.2932,2.2939,2.2958,2.2969,2.2967,2.2979,2.2993,2.3007,2.3025,2.3039,2.3069,2.3073,2.3089,2.3084,2.3108,2.3087,2.3085,2.3081,2.3079,2.308,2.3111,2.3111,2.3112,2.3112,0,2.2947,2.2946,2.2963,2.2979,2.2992,2.3005,2.3017,2.3026,2.3025,2.3039,2.3057,2.3068,2.309,2.3106,2.3121,2.3127,2.3118,2.3119,2.3124,2.3123,2.312,2.3119,2.3055,2.3117,2.3117,2.3116,2.3116,2.3116,2.2988,2.3004,2.3014,2.3032,2.304,2.3051,2.3066,2.3069,2.3085,2.3102,2.31,2.312,2.3129,2.3148,2.3155,2.317,2.3162,2.317,2.3171,2.3172,2.3173,2.312,2.3173,2.3173,2.3173,2.3173,2.3173,0,2.3043,2.3048,2.3065,2.3081,2.3094,2.3086,2.3098,2.3109,2.3127,2.3136,2.315,2.317,2.3186,2.319,2.3205,2.3216,2.3212,2.322,2.3218,2.3218,2.3181,2.3174,2.3222,2.3222,2.3222,2.3222,2.3222,2.3222,2.3073,2.3099,2.3099,2.3128,2.3134,2.3153,2.316,2.3169,2.3176,2.3199,2.3212,2.3214,2.3221,2.3236,2.325,2.325,2.3255,2.3263,2.3262,2.3227,2.3222,2.3217,2.321,2.3265,2.3265,2.3298,2.3299,2.3299]}]]